FW5910 Weather Reports


time (UTC)temp
C
wind
direction
speed
KPH
gust
KPH
rain 1hr
cm
rain 24hr
cm
rain mn
cm
humidity
%
barometer
mb
20260507094330 10 257 0.0 3.2 0.00 0.15 0.13 91 1010.9
20260507093836 10 96 0.0 3.2 0.00 0.15 0.13 92 1011.0
20260507093333 10 96 1.6 3.2 0.00 0.15 0.13 91 1011.3
20260507092835 10 206 1.6 3.2 0.00 0.15 0.13 91 1011.4
20260507092331 10 163 0.0 3.2 0.00 0.15 0.13 91 1011.4
20260507091834 10 273 1.6 6.4 0.00 0.15 0.13 91 1011.3
20260507091332 10 250 1.6 6.4 0.00 0.15 0.13 91 1011.4
20260507090834 10 339 1.6 3.2 0.00 0.15 0.13 91 1011.3
20260507090332 10 234 1.6 3.2 0.00 0.15 0.13 91 1011.0
20260507085833 10 275 1.6 6.4 0.00 0.15 0.13 92 1011.0
20260507085329 10 232 3.2 6.4 0.00 0.15 0.13 91 1011.2
20260507084831 10 224 1.6 3.2 0.00 0.15 0.13 92 1011.3
20260507083832 10 173 0.0 1.6 0.00 0.15 0.13 91 1011.5
20260507083329 10 159 0.0 0.0 0.00 0.15 0.13 92 1011.5
20260507082830 10 169 0.0 0.0 0.00 0.15 0.13 92 1011.5
20260507082323 10 211 0.0 0.0 0.00 0.15 0.13 92 1011.4
20260507081312 10 87 1.6 4.8 0.00 0.15 0.13 92 1011.2
20260507080812 10 87 1.6 4.8 0.03 0.15 0.13 91 1011.3
20260507080311 10 221 1.6 4.8 0.05 0.15 0.13 92 1011.5
20260507075811 10 239 1.6 4.8 0.10 0.15 0.13 92 1011.5
20260507074811 10 165 0.0 1.6 0.13 0.15 0.13 91 1010.9
20260507074312 10 198 0.0 3.2 0.13 0.15 0.13 90 1011.0
20260507073812 10 199 0.0 3.2 0.13 0.15 0.13 90 1011.0
20260507073311 10 68 1.6 4.8 0.13 0.15 0.13 91 1011.2
20260507072811 10 77 1.6 4.8 0.13 0.15 0.13 89 1011.0
20260507072311 11 215 1.6 6.4 0.13 0.15 0.13 90 1011.2
20260507071807 11 77 3.2 6.4 0.13 0.15 0.13 89 1011.2
20260507071306 11 109 3.2 6.4 0.10 0.13 0.10 88 1011.3
20260507070805 11 92 0.0 4.8 0.10 0.13 0.10 87 1011.3
20260507070305 11 159 0.0 1.6 0.05 0.08 0.05 86 1011.3
20260507065803 12 248 4.8 11.3 0.03 0.05 0.03 84 1011.2
20260507065300 12 96 4.8 11.3 0.00 0.03 0.00 81 1011.0
20260507064802 12 93 1.6 9.7 0.00 0.03 0.00 79 1011.0
20260507064303 12 163 1.6 6.4 0.00 0.03 0.00 80 1011.3
20260507063801 12 257 1.6 6.4 0.00 0.03 0.00 82 1011.4
20260507063302 12 259 1.6 8.0 0.00 0.03 0.00 81 1010.7
20260507062802 12 323 1.6 8.0 0.00 0.03 0.00 82 1010.4
20260507062301 12 219 0.0 1.6 0.00 0.03 0.00 79 1010.1
20260507061801 12 219 0.0 1.6 0.00 0.03 0.00 75 1010.2
20260507061301 12 219 0.0 3.2 0.00 0.03 0.00 74 1010.2
20260507060801 12 218 0.0 3.2 0.00 0.03 0.00 76 1010.2
20260507060302 12 193 0.0 1.6 0.00 0.03 0.00 76 1010.2
20260507055803 12 215 0.0 4.8 0.00 0.03 0.03 75 1010.1
20260507055300 12 157 1.6 4.8 0.00 0.03 0.03 74 1010.1
20260507054802 12 107 0.0 4.8 0.03 0.03 0.03 75 1010.1
20260507054301 12 153 0.0 1.6 0.03 0.03 0.03 77 1010.1
20260507053801 12 222 1.6 9.7 0.03 0.03 0.03 78 1010.2
20260507053301 13 232 4.8 12.9 0.03 0.03 0.03 75 1010.2
20260507052801 12 91 6.4 12.9 0.03 0.03 0.03 74 1010.3
20260507052306 12 49 4.8 16.1 0.03 0.03 0.03 78 1010.2
20260507051808 11 84 3.2 16.1 0.03 0.03 0.03 81 1010.3
20260507051301 11 200 3.2 6.4 0.03 0.03 0.03 84 1010.6
20260507050802 11 98 1.6 6.4 0.03 0.03 0.03 83 1011.2
20260507050301 11 112 1.6 3.2 0.03 0.03 0.03 86 1011.3
20260507045802 11 150 1.6 4.8 0.03 0.03 0.03 83 1011.3
20260507045301 12 279 1.6 9.7 0.03 0.03 0.00 83 1011.3
20260507044801 12 282 6.4 16.1 0.00 0.00 0.00 79 1011.3
20260507044301 12 45 6.4 16.1 0.00 0.00 0.00 78 1011.2
20260507043801 13 67 3.2 14.5 0.00 0.00 0.00 78 1011.3
20260507043302 13 323 0.0 6.4 0.00 0.00 0.00 75 1010.1
20260507042801 13 273 0.0 1.6 0.00 0.00 0.00 74 1009.3
20260507042301 13 273 0.0 1.6 0.00 0.00 0.00 75 1009.3
20260507041804 13 273 0.0 1.6 0.00 0.00 0.00 74 1009.5
20260507041303 13 273 0.0 1.6 0.00 0.00 0.00 73 1009.6
20260507040803 13 273 0.0 1.6 0.00 0.00 0.00 74 1009.6
20260507040301 13 276 0.0 3.2 0.00 0.00 0.00 74 1009.6
20260507035801 13 108 0.0 3.2 0.00 0.00 0.00 74 1009.5
20260507035301 13 45 0.0 1.6 0.00 0.00 0.00 71 1009.6
20260507034757 13 123 0.0 1.6 0.00 0.00 0.00 67 1009.5
20260507034251 13 252 0.0 1.6 0.00 0.00 0.00 72 1009.5
20260507033744 14 161 0.0 1.6 0.00 0.00 0.00 70 1009.5
20260507033238 14 53 0.0 1.6 0.00 0.00 0.00 68 1009.6
20260507032732 14 55 0.0 3.2 0.00 0.00 0.00 68 1009.5
20260507032230 14 55 0.0 3.2 0.00 0.00 0.00 68 1009.6
20260507031731 14 254 0.0 1.6 0.00 0.00 0.00 65 1009.6
20260507031230 15 254 0.0 1.6 0.00 0.00 0.00 66 1009.5
20260507030729 15 254 0.0 1.6 0.00 0.00 0.00 63 1009.5
20260507030230 15 254 0.0 1.6 0.00 0.00 0.00 64 1009.4
20260507025730 15 254 0.0 1.6 0.00 0.00 0.00 63 1009.3
20260507025229 16 254 0.0 1.6 0.00 0.00 0.00 63 1009.3
20260507024730 16 285 0.0 1.6 0.00 0.00 0.00 63 1009.2
20260507024230 16 285 0.0 1.6 0.00 0.00 0.00 62 1009.2
20260507023730 16 228 0.0 1.6 0.00 0.00 0.00 57 1009.1
20260507023231 16 227 0.0 1.6 0.00 0.00 0.00 59 1009.2
20260507022729 16 228 0.0 1.6 0.00 0.00 0.00 61 1009.2
20260507022232 16 223 0.0 1.6 0.00 0.00 0.00 59 1009.1
20260507021733 16 252 0.0 1.6 0.00 0.00 0.00 60 1009.2
20260507021231 17 244 0.0 1.6 0.00 0.00 0.00 56 1009.1
20260507020729 17 152 0.0 0.0 0.00 0.00 0.00 54 1009.1
20260507020230 17 152 0.0 1.6 0.00 0.00 0.00 54 1009.1
20260507015729 17 152 0.0 1.6 0.00 0.00 0.00 56 1009.1
20260507015230 17 152 0.0 1.6 0.00 0.00 0.00 54 1009.2
20260507014730 17 69 0.0 1.6 0.00 0.00 0.00 55 1009.3
20260507014232 17 68 0.0 1.6 0.00 0.00 0.00 56 1009.4
20260507013729 17 69 1.6 4.8 0.00 0.00 0.00 56 1009.4
20260507013230 17 63 1.6 4.8 0.00 0.00 0.00 54 1009.5
20260507012729 18 35 0.0 3.2 0.00 0.00 0.00 51 1009.5
20260507011729 18 223 0.0 1.6 0.00 0.00 0.00 49 1009.4
20260507011229 18 223 0.0 1.6 0.00 0.00 0.00 49 1009.3
20260507010729 19 223 0.0 1.6 0.00 0.00 0.00 52 1009.3
20260507010230 19 223 0.0 1.6 0.00 0.00 0.00 49 1009.3
20260507005229 19 223 0.0 0.0 0.00 0.00 0.00 46 1009.4
20260507004729 20 223 0.0 1.6 0.00 0.00 0.00 46 1009.4
20260507004230 19 223 0.0 1.6 0.00 0.00 0.00 46 1009.5
20260507003728 19 223 0.0 1.6 0.00 0.00 0.00 45 1009.5
20260507003229 20 219 0.0 1.6 0.00 0.00 0.00 47 1009.5
20260507002729 20 218 0.0 1.6 0.00 0.00 0.00 45 1009.5
20260507001729 19 207 1.6 4.8 0.00 0.00 0.00 44 1009.7
20260507001230 20 229 0.0 4.8 0.00 0.00 0.00 44 1009.7
20260507000729 20 259 0.0 6.4 0.00 0.00 0.00 43 1009.8
20260507000229 20 212 1.6 6.4 0.00 0.00 0.00 43 1009.7
20260506235729 20 169 1.6 4.8 0.00 0.00 0.00 43 1009.7
20260506235229 20 313 1.6 4.8 0.00 0.00 0.00 40 1009.6
20260506234730 21 234 1.6 4.8 0.00 0.00 0.00 39 1009.6
20260506234229 21 159 1.6 4.8 0.00 0.00 0.00 40 1009.6
20260506233729 21 234 1.6 4.8 0.00 0.00 0.00 38 1009.7
20260506232729 21 286 3.2 9.7 0.00 0.00 0.00 40 1009.7
20260506232231 21 223 1.6 9.7 0.00 0.00 0.00 37 1009.6
20260506231226 21 241 1.6 8.0 0.00 0.00 0.00 38 1009.7
20260506230726 21 229 3.2 8.0 0.00 0.00 0.00 38 1009.7
20260506230226 21 275 3.2 8.0 0.00 0.00 0.00 38 1009.7
20260506225725 21 269 3.2 8.0 0.00 0.00 0.00 38 1009.8
20260506225226 21 229 1.6 8.0 0.00 0.00 0.00 39 1009.8
20260506224726 21 184 1.6 4.8 0.00 0.00 0.00 38 1010.0
20260506223724 21 153 1.6 6.4 0.00 0.00 0.00 39 1010.1
20260506223224 20 244 3.2 9.7 0.00 0.00 0.00 39 1010.2
20260506222722 21 223 3.2 9.7 0.00 0.00 0.00 38 1010.3
20260506222221 21 254 3.2 9.7 0.00 0.00 0.00 36 1010.5
20260506221718 21 239 3.2 9.7 0.00 0.00 0.00 37 1010.5
20260506221219 21 274 3.2 9.7 0.00 0.00 0.00 37 1010.5
20260506220214 21 115 3.2 6.4 0.00 0.00 0.00 35 1010.7
20260506215712 21 229 3.2 9.7 0.00 0.00 0.00 36 1010.8
20260506214712 21 228 3.2 8.0 0.00 0.00 0.00 36 1011.0
20260506214211 21 192 3.2 11.3 0.00 0.00 0.00 33 1011.2
20260506213212 20 270 3.2 11.3 0.00 0.00 0.00 35 1011.5
20260506212713 20 209 4.8 12.9 0.00 0.00 0.00 35 1011.6
20260506212213 20 242 4.8 14.5 0.00 0.00 0.00 34 1011.7
20260506211708 21 175 3.2 14.5 0.00 0.00 0.00 34 1011.8
20260506205709 20 193 3.2 11.3 0.00 0.00 0.00 33 1012.0
20260506205209 20 244 3.2 12.9 0.00 0.00 0.00 36 1012.0
20260506204708 20 209 4.8 17.7 0.00 0.00 0.00 35 1012.2
20260506204208 19 236 4.8 17.7 0.00 0.00 0.00 35 1012.4
20260506203708 20 200 3.2 11.3 0.00 0.00 0.00 33 1012.4
20260506203204 20 202 3.2 11.3 0.00 0.00 0.00 35 1012.5
20260506202703 20 156 3.2 12.9 0.00 0.00 0.00 35 1012.6
20260506202205 20 220 3.2 12.9 0.00 0.00 0.00 35 1012.6
20260506201704 20 161 3.2 12.9 0.00 0.00 0.00 35 1012.6
20260506200704 19 325 3.2 9.7 0.00 0.00 0.00 34 1012.8
20260506200205 20 286 3.2 9.7 0.00 0.00 0.00 35 1012.8
20260506195705 20 202 3.2 9.7 0.00 0.00 0.00 34 1012.9
20260506195205 20 200 1.6 9.7 0.00 0.00 0.00 33 1013.0
20260506194704 19 171 1.6 6.4 0.00 0.00 0.00 34 1013.1
20260506194204 18 282 3.2 6.4 0.00 0.00 0.00 34 1013.1
20260506192705 19 67 1.6 8.0 0.00 0.00 0.00 32 1013.4
20260506190703 17 238 3.2 11.3 0.00 0.00 0.00 36 1013.7
20260506190201 18 223 3.2 11.3 0.00 0.00 0.00 36 1013.8
20260506185702 17 232 3.2 11.3 0.00 0.00 0.00 37 1013.8
20260506185202 17 225 3.2 11.3 0.00 0.00 0.00 36 1013.9
20260506184702 17 215 3.2 8.0 0.00 0.00 0.00 35 1014.2
20260506184201 17 161 1.6 8.0 0.00 0.00 0.00 36 1014.2
20260506183202 17 239 3.2 11.3 0.00 0.00 0.00 36 1014.5
20260506182704 17 154 1.6 9.7 0.00 0.00 0.00 37 1014.5
20260506182205 16 326 1.6 6.4 0.00 0.00 0.00 38 1014.6
20260506181703 16 196 1.6 6.4 0.00 0.00 0.00 40 1014.8
20260506181203 16 106 1.6 6.4 0.00 0.00 0.00 36 1014.9
20260506180703 16 263 3.2 6.4 0.00 0.00 0.00 38 1014.9
20260506180204 16 336 1.6 8.0 0.00 0.00 0.00 39 1014.8
20260506175703 15 284 3.2 8.0 0.00 0.00 0.00 37 1015.0
20260506175204 15 168 3.2 9.7 0.00 0.00 0.00 36 1015.0
20260506174705 15 292 1.6 9.7 0.00 0.00 0.00 37 1015.1
20260506174203 15 79 1.6 6.4 0.00 0.00 0.00 38 1015.2
20260506173703 15 213 1.6 6.4 0.00 0.00 0.00 39 1015.2
20260506172706 15 83 3.2 11.3 0.00 0.00 0.00 38 1015.2
20260506172204 14 68 3.2 11.3 0.00 0.00 0.00 41 1015.3
20260506171203 15 232 1.6 6.4 0.00 0.00 0.00 41 1015.4
20260506170201 14 223 1.6 12.9 0.00 0.00 0.00 39 1015.4
20260506165149 13 238 1.6 8.0 0.00 0.00 0.00 39 1015.5
20260506164643 13 229 1.6 4.8 0.00 0.00 0.00 39 1015.5
20260506164135 13 235 1.6 6.4 0.00 0.00 0.00 42 1015.7
20260506163634 12 241 1.6 6.4 0.00 0.00 0.00 44 1015.7
20260506163131 12 207 1.6 4.8 0.00 0.00 0.00 49 1015.7
20260506162634 11 101 1.6 4.8 0.00 0.00 0.00 50 1015.9
20260506162131 11 28 1.6 4.8 0.00 0.00 0.00 52 1015.9
20260506161131 10 83 3.2 12.9 0.00 0.00 0.00 52 1016.1
20260506160635 10 57 4.8 12.9 0.00 0.00 0.00 53 1016.2
20260506160131 9 67 3.2 6.4 0.00 0.00 0.00 52 1016.3
20260506155632 10 68 3.2 6.4 0.00 0.00 0.00 52 1016.3
20260506155133 9 67 3.2 4.8 0.00 0.00 0.00 53 1016.4
20260506154635 8 59 3.2 4.8 0.00 0.00 0.00 54 1016.3
20260506154133 8 78 3.2 6.4 0.00 0.00 0.00 54 1016.4
20260506153631 8 96 3.2 6.4 0.00 0.00 0.00 56 1016.4
20260506153134 8 28 1.6 6.4 0.00 0.00 0.00 58 1016.5
20260506152630 7 71 3.2 6.4 0.00 0.00 0.00 59 1016.4
20260506152124 7 72 3.2 6.4 0.00 0.00 0.00 62 1016.5
20260506151622 7 42 3.2 6.4 0.00 0.00 0.00 63 1016.6
20260506151121 6 334 1.6 6.4 0.00 0.00 0.00 61 1016.6
20260506150620 6 34 1.6 6.4 0.00 0.00 0.00 61 1016.6
20260506150117 6 326 1.6 4.8 0.00 0.00 0.00 64 1016.7
20260506145616 5 298 1.6 4.8 0.00 0.00 0.00 66 1016.7
20260506145114 5 302 0.0 3.2 0.00 0.00 0.00 66 1016.9
20260506144613 5 344 0.0 3.2 0.00 0.00 0.00 70 1016.8
20260506144115 4 326 0.0 3.2 0.00 0.00 0.00 69 1016.9
20260506143111 3 300 0.0 3.2 0.00 0.00 0.00 72 1016.9
20260506142611 3 309 0.0 1.6 0.00 0.00 0.00 74 1017.1
20260506142111 3 309 0.0 1.6 0.00 0.00 0.00 74 1017.1
20260506141609 2 285 0.0 1.6 0.00 0.00 0.00 78 1017.1
20260506140608 2 285 0.0 1.6 0.00 0.00 0.00 80 1017.1
20260506140109 1 284 0.0 1.6 0.00 0.00 0.00 80 1016.9
20260506135607 1 277 0.0 1.6 0.00 0.00 0.00 82 1016.9
20260506135105 1 277 0.0 3.2 0.00 0.00 0.00 82 1017.1
20260506134602 1 317 0.0 3.2 0.00 0.00 0.00 83 1016.9
20260506134101 1 322 0.0 3.2 0.00 0.00 0.00 82 1016.9
20260506133555 0 232 0.0 0.0 0.00 0.00 0.00 84 1016.9
20260506133050 0 232 0.0 0.0 0.00 0.00 0.00 85 1017.1
20260506132544 0 232 0.0 0.0 0.00 0.00 0.00 85 1017.1
20260506132038 0 232 0.0 0.0 0.00 0.00 0.00 85 1016.9
20260506131531 0 221 0.0 0.0 0.00 0.00 0.00 84 1017.1
20260506131030 0 221 0.0 0.0 0.00 0.00 0.00 83 1016.9
20260506130530 0 222 0.0 0.0 0.00 0.00 0.00 83 1016.9
20260506130029 0 222 0.0 0.0 0.00 0.00 0.00 83 1016.9
20260506125529 0 221 0.0 0.0 0.00 0.00 0.00 84 1016.9
20260506125029 0 221 0.0 1.6 0.00 0.00 0.00 85 1016.9
20260506124530 0 221 0.0 0.0 0.00 0.00 0.00 84 1016.9
20260506124030 0 217 0.0 1.6 0.00 0.00 0.00 84 1016.9
20260506123529 0 209 0.0 1.6 0.00 0.00 0.00 84 1016.9
20260506123030 0 244 0.0 1.6 0.00 0.00 0.00 84 1016.9
20260506122529 0 244 0.0 1.6 0.00 0.00 0.00 83 1016.9
20260506121530 0 245 0.0 1.6 0.00 0.00 0.00 82 1016.9
20260506121029 0 245 0.0 1.6 0.00 0.00 0.00 82 1016.9
20260506120531 0 238 0.0 1.6 0.00 0.00 0.00 81 1017.1
20260506120029 1 242 0.0 1.6 0.00 0.00 0.00 80 1017.1
20260506115032 1 319 0.0 3.2 0.00 0.00 0.00 80 1016.9
20260506114536 1 319 0.0 3.2 0.00 0.00 0.00 80 1016.9
20260506114033 1 254 0.0 1.6 0.00 0.00 0.00 79 1016.9
20260506113530 1 329 0.0 1.6 0.00 0.00 0.00 79 1016.9
20260506113030 1 9 0.0 1.6 0.00 0.00 0.00 79 1017.1
20260506112529 1 67 0.0 1.6 0.00 0.00 0.00 77 1017.1
20260506112028 1 266 0.0 1.6 0.00 0.00 0.00 77 1017.1
20260506111531 1 333 0.0 1.6 0.00 0.00 0.00 78 1016.9
20260506111030 1 328 0.0 1.6 0.00 0.00 0.00 76 1016.9
20260506110030 1 302 0.0 1.6 0.00 0.00 0.00 77 1016.9
20260506105529 2 279 0.0 1.6 0.00 0.00 0.00 77 1017.1
20260506105030 2 279 0.0 1.6 0.00 0.00 0.00 76 1016.9
20260506104033 2 255 0.0 1.6 0.00 0.00 0.00 75 1016.9
20260506103532 2 267 0.0 1.6 0.00 0.00 0.00 76 1016.8
20260506103033 2 270 0.0 1.6 0.00 0.00 0.00 74 1016.8
20260506102532 2 254 0.0 1.6 0.00 0.00 0.00 73 1016.8
20260506102034 2 346 0.0 1.6 0.00 0.00 0.00 74 1016.8
20260506101537 2 298 0.0 3.2 0.00 0.00 0.00 73 1016.9
20260506101032 2 302 1.6 4.8 0.00 0.00 0.00 74 1016.8
20260506100529 2 330 1.6 4.8 0.00 0.00 0.00 73 1016.9
20260506100029 2 44 1.6 3.2 0.00 0.00 0.00 75 1016.7
20260506095529 2 329 1.6 6.4 0.00 0.00 0.00 74 1016.9